BOX590 EDDP-RJAA

Flight info

Callsign BOX590
Flight time N/A
Altitude 29000
Route DRN2S DRN Z21 OMELO DCT EVIKU DCT PATAK DCT GANNA DCT IRLOX DCT UDROS DCT CRM UM11 ARSUG/N0488F310 UM11 TBN UG261 NOLGA DCT BARAD M747 SUBUT T916 BALUN/K0911F310 T916 LONSI/K0902F330 T916 PIGAL M610 RULAD/K0896S1010 A343 POSOT B215 FKG W188 LIKMI W270 DKO W69 GUVBA/K0898S1070 W69 HUR B339 LADIX W34 VAPGU W100 ORAVA W201 UNSEK A326 DONVO G597 AGAVO/N0485F350 Y644 EGOBA G597 LANAT Y51 SAMON Y517 ESKAS Y303 ENTAK/N0482F360 Y30 SWAMP
Aircraft B77L/H-SDE2E3GHIJ4J5M1P2RWXYZ/LB1D1

Departure

Time N/A
Airport Leipzig/Halle Airport (EDDP)

Arrival

Time 2026-05-06 23:24
Airport Narita International Airport (RJAA)
Time Latitude Longitude Altitude Speed Heading
2026-05-06 21:41 37.20866 126.15746 35058 ft 554 kts 91°
2026-05-06 21:41 37.20907 126.20571 35074 ft 554 kts 91°
2026-05-06 21:42 37.20984 126.30157 35070 ft 553 kts 91°
2026-05-06 21:42 37.21054 126.39799 35075 ft 553 kts 91°
2026-05-06 21:43 37.21116 126.49441 35079 ft 552 kts 91°
2026-05-06 21:43 37.21176 126.59065 35076 ft 551 kts 91°
2026-05-06 21:44 37.21231 126.68614 35116 ft 551 kts 92°
2026-05-06 21:44 37.21277 126.78248 35080 ft 552 kts 91°
2026-05-06 21:45 37.21322 126.87875 35088 ft 552 kts 91°
2026-05-06 21:45 37.22205 126.97387 35098 ft 551 kts 71°
2026-05-06 21:46 37.23651 127.01744 35090 ft 549 kts 59°
2026-05-06 21:46 37.25690 127.05759 35095 ft 543 kts 46°
2026-05-06 21:46 37.30787 127.12719 35144 ft 544 kts 43°
2026-05-06 21:47 37.35934 127.19770 35109 ft 549 kts 44°
2026-05-06 21:47 37.40960 127.26994 35100 ft 546 kts 47°
2026-05-06 21:48 37.45895 127.34133 35095 ft 547 kts 48°
2026-05-06 21:48 37.48004 127.38141 35112 ft 553 kts 61°
2026-05-06 21:48 37.49506 127.42613 35113 ft 556 kts 71°
2026-05-06 21:49 37.51083 127.52157 35104 ft 558 kts 81°
2026-05-06 21:49 37.52536 127.61772 35112 ft 559 kts 78°
2026-05-06 21:50 37.54090 127.71307 35111 ft 559 kts 78°
2026-05-06 21:50 37.55609 127.80893 35072 ft 557 kts 79°
2026-05-06 21:51 37.57106 127.90456 35095 ft 556 kts 79°
2026-05-06 21:51 37.58599 127.99999 35086 ft 554 kts 79°
2026-05-06 21:52 37.60074 128.09463 35071 ft 554 kts 79°
2026-05-06 21:52 37.61555 128.19005 35035 ft 555 kts 79°
2026-05-06 21:53 37.63037 128.28577 34974 ft 557 kts 79°
2026-05-06 21:53 37.64519 128.38178 34980 ft 560 kts 79°
2026-05-06 21:54 37.65993 128.47837 34980 ft 568 kts 79°
2026-05-06 21:54 37.67475 128.57656 34970 ft 571 kts 79°
2026-05-06 21:55 37.68894 128.67528 34944 ft 571 kts 82°
2026-05-06 21:55 37.69161 128.72518 34946 ft 569 kts 97°
2026-05-06 21:55 37.68511 128.77394 34952 ft 561 kts 111°
2026-05-06 21:56 37.67129 128.81958 34958 ft 552 kts 123°
2026-05-06 21:56 37.65208 128.86009 34949 ft 543 kts 130°
2026-05-06 21:56 37.61117 128.94069 34944 ft 547 kts 128°
2026-05-06 21:57 37.57156 129.02294 34945 ft 550 kts 127°
2026-05-06 21:57 37.53215 129.10547 34938 ft 549 kts 127°
2026-05-06 21:58 37.49264 129.18745 34930 ft 545 kts 127°
2026-05-06 21:58 37.45356 129.26814 34926 ft 542 kts 127°
2026-05-06 21:59 37.41439 129.34896 34929 ft 539 kts 127°
2026-05-06 21:59 37.37549 129.42920 34931 ft 536 kts 127°
2026-05-06 22:00 37.33673 129.50901 34932 ft 534 kts 127°
2026-05-06 22:00 37.29828 129.58793 34917 ft 533 kts 127°
2026-05-06 22:01 37.25959 129.66717 34931 ft 532 kts 127°
2026-05-06 22:01 37.22088 129.74628 34936 ft 532 kts 127°
2026-05-06 22:02 37.18866 129.81201 34934 ft 532 kts 127°
2026-05-06 22:02 37.14344 129.90387 34944 ft 533 kts 127°
2026-05-06 22:03 37.10431 129.98286 34949 ft 534 kts 127°
2026-05-06 22:03 37.06507 130.06195 34937 ft 535 kts 127°
2026-05-06 22:04 37.03237 130.12774 34956 ft 536 kts 127°
2026-05-06 22:04 36.98658 130.21970 34959 ft 536 kts 127°
2026-05-06 22:05 36.94709 130.29880 34955 ft 536 kts 127°
2026-05-06 22:05 36.91429 130.36436 34959 ft 535 kts 127°
2026-05-06 22:06 36.87483 130.44307 34960 ft 534 kts 127°
2026-05-06 22:06 36.83540 130.52151 34956 ft 533 kts 127°
2026-05-06 22:07 36.79602 130.59971 34962 ft 531 kts 127°
2026-05-06 22:07 36.75668 130.67764 34964 ft 531 kts 127°
2026-05-06 22:08 36.71756 130.75488 34969 ft 530 kts 127°
2026-05-06 22:08 36.67812 130.83253 34970 ft 530 kts 127°
2026-05-06 22:09 36.63866 130.91011 34966 ft 530 kts 127°
2026-05-06 22:09 36.59915 130.98763 34972 ft 530 kts 127°
2026-05-06 22:10 36.55984 131.06458 34980 ft 531 kts 127°
2026-05-06 22:10 36.52013 131.14212 34963 ft 532 kts 127°
2026-05-06 22:11 36.48038 131.21958 34983 ft 531 kts 127°
2026-05-06 22:11 36.44059 131.29697 34990 ft 531 kts 127°
2026-05-06 22:12 36.40136 131.37400 34977 ft 532 kts 123°
2026-05-06 22:12 36.37493 131.46034 34991 ft 541 kts 105°
2026-05-06 22:13 36.36719 131.55341 34996 ft 544 kts 93°
2026-05-06 22:13 36.36546 131.64717 34993 ft 544 kts 93°
2026-05-06 22:14 36.36333 131.74084 35016 ft 543 kts 94°
2026-05-06 22:14 36.36049 131.83396 35001 ft 544 kts 94°
2026-05-06 22:15 36.35732 131.92769 34998 ft 544 kts 94°
2026-05-06 22:15 36.35409 132.02141 34998 ft 544 kts 94°
2026-05-06 22:16 36.35084 132.11504 35009 ft 543 kts 94°
2026-05-06 22:16 36.34756 132.20795 35005 ft 542 kts 94°
2026-05-06 22:17 36.34420 132.30132 34997 ft 542 kts 94°
2026-05-06 22:17 36.34076 132.39461 35013 ft 541 kts 94°
2026-05-06 22:18 36.33725 132.48774 35000 ft 540 kts 95°
2026-05-06 22:18 36.33370 132.58004 35016 ft 539 kts 95°
2026-05-06 22:19 36.33006 132.67278 35014 ft 538 kts 94°
2026-05-06 22:19 36.32636 132.76535 35010 ft 537 kts 94°
2026-05-06 22:20 36.32259 132.85779 35015 ft 537 kts 95°
2026-05-06 22:20 36.31877 132.94956 35019 ft 537 kts 95°
2026-05-06 22:21 36.31486 133.04195 35025 ft 537 kts 95°
2026-05-06 22:21 36.31088 133.13437 35025 ft 537 kts 95°
2026-05-06 22:22 36.30683 133.22684 35026 ft 537 kts 95°
2026-05-06 22:22 36.30271 133.31881 35015 ft 539 kts 95°
2026-05-06 22:23 36.29851 133.41158 35018 ft 539 kts 95°
2026-05-06 22:23 36.29422 133.50435 35025 ft 539 kts 95°
2026-05-06 22:24 36.28986 133.59717 35027 ft 540 kts 95°
2026-05-06 22:24 36.28547 133.68936 35018 ft 540 kts 95°
2026-05-06 22:25 36.28096 133.78220 35025 ft 540 kts 95°
2026-05-06 22:25 36.27620 133.87506 35026 ft 540 kts 95°
2026-05-06 22:26 36.27134 133.96787 35028 ft 540 kts 95°
2026-05-06 22:26 36.26646 134.06060 35028 ft 539 kts 95°
2026-05-06 22:27 36.26162 134.15263 35029 ft 539 kts 95°
2026-05-06 22:27 36.25681 134.24522 35029 ft 538 kts 95°
2026-05-06 22:28 36.25193 134.33777 35031 ft 538 kts 95°
2026-05-06 22:28 36.24697 134.43017 35035 ft 537 kts 95°
2026-05-06 22:29 36.24761 134.52210 35036 ft 538 kts 85°
2026-05-06 22:29 36.26037 134.61334 35045 ft 538 kts 77°
2026-05-06 22:30 36.27635 134.70392 35040 ft 538 kts 77°
2026-05-06 22:30 36.29203 134.79470 35043 ft 539 kts 78°
2026-05-06 22:31 36.30717 134.88507 35038 ft 539 kts 78°
2026-05-06 22:31 36.32221 134.97613 35041 ft 539 kts 78°
2026-05-06 22:32 36.33720 135.06725 35040 ft 539 kts 78°
2026-05-06 22:32 36.35213 135.15830 35040 ft 539 kts 78°
2026-05-06 22:33 36.36691 135.24876 35040 ft 538 kts 78°
2026-05-06 22:33 36.38170 135.33978 35040 ft 538 kts 78°
2026-05-06 22:34 36.39642 135.43082 35044 ft 538 kts 78°
2026-05-06 22:34 36.41106 135.52189 35040 ft 537 kts 78°
2026-05-06 22:35 36.42561 135.61284 35043 ft 537 kts 78°
2026-05-06 22:35 36.43999 135.70316 35046 ft 537 kts 78°
2026-05-06 22:36 36.45440 135.79414 35040 ft 537 kts 78°
2026-05-06 22:36 36.46874 135.88516 35042 ft 537 kts 78°
2026-05-06 22:37 36.48302 135.97624 35048 ft 537 kts 78°
2026-05-06 22:37 36.49724 136.06746 35040 ft 538 kts 78°
2026-05-06 22:38 36.51131 136.15817 35047 ft 538 kts 78°
2026-05-06 22:38 36.52540 136.24947 35046 ft 538 kts 78°
2026-05-06 22:39 36.53942 136.34082 35048 ft 538 kts 78°
2026-05-06 22:39 36.55336 136.43215 35047 ft 538 kts 79°
2026-05-06 22:40 36.56714 136.52292 35041 ft 537 kts 79°
2026-05-06 22:40 36.58093 136.61423 35043 ft 537 kts 79°
2026-05-06 22:41 36.60148 136.75124 35053 ft 536 kts 79°
2026-05-06 22:42 36.61499 136.84186 35045 ft 536 kts 79°
2026-05-06 22:42 36.62850 136.93303 35050 ft 535 kts 79°
2026-05-06 22:43 36.64178 137.02413 35049 ft 535 kts 79°
2026-05-06 22:43 36.65477 137.11528 35049 ft 534 kts 79°
2026-05-06 22:44 36.66759 137.20576 35054 ft 534 kts 79°
2026-05-06 22:44 36.68048 137.29692 35049 ft 535 kts 79°
2026-05-06 22:45 36.69331 137.38810 35058 ft 534 kts 79°
2026-05-06 22:45 36.70607 137.47929 35067 ft 534 kts 79°
2026-05-06 22:46 36.71877 137.57063 35061 ft 535 kts 79°
2026-05-06 22:46 36.73133 137.66147 35078 ft 536 kts 79°
2026-05-06 22:47 36.74392 137.75302 35090 ft 535 kts 79°
2026-05-06 22:47 36.75642 137.84439 35083 ft 534 kts 79°
2026-05-06 22:48 36.76881 137.93573 35084 ft 534 kts 79°
2026-05-06 22:48 36.78108 138.02660 35083 ft 535 kts 79°
2026-05-06 22:49 36.79341 138.11814 35084 ft 535 kts 79°
2026-05-06 22:49 36.80605 138.20960 35087 ft 534 kts 79°
2026-05-06 22:50 36.81872 138.30103 35085 ft 535 kts 79°
2026-05-06 22:50 36.83117 138.39191 35098 ft 534 kts 79°
2026-05-06 22:51 36.84362 138.48346 35082 ft 536 kts 79°
2026-05-06 22:51 36.85586 138.57521 35069 ft 535 kts 80°
2026-05-06 22:52 36.86794 138.66688 35092 ft 535 kts 80°
2026-05-06 22:52 36.87989 138.75791 35079 ft 534 kts 80°
2026-05-06 22:53 36.89185 138.84951 35075 ft 534 kts 80°
2026-05-06 22:53 36.90372 138.94098 35099 ft 534 kts 80°
2026-05-06 22:54 36.91559 139.03261 35069 ft 534 kts 80°
2026-05-06 22:54 36.92727 139.12353 35076 ft 534 kts 80°
2026-05-06 22:55 36.93923 139.21512 35062 ft 534 kts 80°
2026-05-06 22:55 36.95098 139.30554 34951 ft 519 kts 80°
2026-05-06 22:55 36.95666 139.34962 34768 ft 509 kts 80°
2026-05-06 22:56 36.96215 139.39234 34515 ft 500 kts 80°
2026-05-06 22:56 36.96761 139.43500 34263 ft 494 kts 79°
2026-05-06 22:56 36.97303 139.47737 34035 ft 494 kts 79°
2026-05-06 22:56 36.97842 139.51988 33799 ft 496 kts 79°
2026-05-06 22:57 36.98380 139.56262 33524 ft 498 kts 80°
2026-05-06 22:57 36.98916 139.60548 33135 ft 498 kts 80°
2026-05-06 22:57 36.99447 139.64825 32749 ft 497 kts 80°
2026-05-06 22:57 36.99975 139.69091 32374 ft 494 kts 80°
2026-05-06 22:58 37.00492 139.73260 32015 ft 489 kts 81°
2026-05-06 22:58 37.01011 139.77440 31623 ft 484 kts 81°
2026-05-06 22:58 37.01520 139.81581 31254 ft 479 kts 81°
2026-05-06 22:58 37.02019 139.85688 30894 ft 475 kts 81°
2026-05-06 22:59 37.02513 139.89757 30529 ft 471 kts 81°
2026-05-06 22:59 37.03003 139.93788 30172 ft 466 kts 81°
2026-05-06 22:59 37.03486 139.97781 29771 ft 463 kts 81°
2026-05-06 22:59 37.03966 140.01751 29365 ft 459 kts 81°
2026-05-06 23:00 37.04450 140.05629 28961 ft 456 kts 81°
2026-05-06 23:00 37.04947 140.09544 28576 ft 456 kts 81°
2026-05-06 23:00 37.05443 140.13460 28204 ft 456 kts 81°
2026-05-06 23:00 37.05938 140.17387 27835 ft 456 kts 81°
2026-05-06 23:01 37.06429 140.21309 27468 ft 455 kts 81°
2026-05-06 23:01 37.06914 140.25216 27095 ft 453 kts 81°
2026-05-06 23:01 37.07386 140.29109 26732 ft 452 kts 81°
2026-05-06 23:01 37.07848 140.32993 26377 ft 449 kts 81°
2026-05-06 23:02 37.08298 140.36795 26023 ft 447 kts 82°
2026-05-06 23:02 37.08752 140.40628 25745 ft 442 kts 82°
2026-05-06 23:02 37.09200 140.44413 25508 ft 437 kts 81°
2026-05-06 23:02 37.09643 140.48156 25270 ft 432 kts 81°
2026-05-06 23:03 37.10079 140.51858 25110 ft 428 kts 81°
2026-05-06 23:03 37.10475 140.55535 25068 ft 427 kts 87°
2026-05-06 23:03 37.10255 140.59248 25062 ft 430 kts 105°
2026-05-06 23:03 37.09240 140.62757 25060 ft 429 kts 121°
2026-05-06 23:04 37.07598 140.65765 25060 ft 422 kts 132°
2026-05-06 23:04 37.05785 140.68663 25011 ft 422 kts 131°
2026-05-06 23:04 37.04025 140.71598 24717 ft 421 kts 130°
2026-05-06 23:04 37.02239 140.74449 24290 ft 412 kts 139°
2026-05-06 23:05 36.99947 140.76484 23760 ft 401 kts 161°
2026-05-06 23:05 36.97315 140.77402 23353 ft 388 kts 178°
2026-05-06 23:05 36.94658 140.77523 22966 ft 377 kts 189°
2026-05-06 23:05 36.92133 140.76878 22496 ft 366 kts 201°
2026-05-06 23:06 36.89734 140.75940 21999 ft 366 kts 202°
2026-05-06 23:06 36.87286 140.74953 21561 ft 364 kts 201°
2026-05-06 23:06 36.84916 140.74001 21197 ft 361 kts 201°
2026-05-06 23:06 36.82532 140.73056 20824 ft 358 kts 201°
2026-05-06 23:07 36.80161 140.72130 20431 ft 356 kts 201°
2026-05-06 23:07 36.77802 140.71217 20027 ft 354 kts 200°
2026-05-06 23:07 36.75452 140.70313 19635 ft 353 kts 200°
2026-05-06 23:07 36.73113 140.69417 19260 ft 350 kts 200°
2026-05-06 23:08 36.70790 140.68529 18889 ft 348 kts 200°
2026-05-06 23:08 36.68481 140.67648 18515 ft 346 kts 200°
2026-05-06 23:08 36.66215 140.66783 18110 ft 344 kts 200°
2026-05-06 23:08 36.63932 140.65912 17687 ft 342 kts 200°
2026-05-06 23:09 36.61668 140.65049 17280 ft 339 kts 200°
2026-05-06 23:09 36.59424 140.64195 16887 ft 336 kts 200°
2026-05-06 23:09 36.57195 140.63348 16475 ft 334 kts 200°
2026-05-06 23:09 36.54984 140.62507 16089 ft 331 kts 200°
2026-05-06 23:10 36.52787 140.61672 15682 ft 329 kts 200°
2026-05-06 23:10 36.50611 140.60843 15294 ft 326 kts 200°
2026-05-06 23:10 36.48479 140.60030 14905 ft 324 kts 200°
2026-05-06 23:10 36.46332 140.59211 14516 ft 322 kts 200°
2026-05-06 23:11 36.44197 140.58397 14144 ft 320 kts 200°
2026-05-06 23:11 36.42079 140.57591 13761 ft 317 kts 200°
2026-05-06 23:11 36.39974 140.56791 13323 ft 316 kts 200°
2026-05-06 23:11 36.37878 140.55994 12872 ft 314 kts 200°
2026-05-06 23:12 36.35790 140.55201 12430 ft 313 kts 200°
2026-05-06 23:12 36.33675 140.54754 12035 ft 310 kts 180°
2026-05-06 23:12 36.31582 140.55379 11730 ft 311 kts 159°
2026-05-06 23:12 36.29787 140.56774 11478 ft 309 kts 141°
2026-05-06 23:13 36.28311 140.58686 11176 ft 305 kts 135°
2026-05-06 23:13 36.26802 140.60463 10713 ft 295 kts 153°
2026-05-06 23:13 36.24871 140.61139 10167 ft 288 kts 185°
2026-05-06 23:13 36.22963 140.60568 9764 ft 281 kts 210°
2026-05-06 23:14 36.21430 140.59131 9381 ft 275 kts 230°
2026-05-06 23:14 36.20340 140.57206 8966 ft 272 kts 238°
2026-05-06 23:14 36.19362 140.55245 8567 ft 271 kts 239°
2026-05-06 23:14 36.18383 140.53264 8184 ft 269 kts 239°
2026-05-06 23:15 36.17409 140.51296 7812 ft 267 kts 239°
2026-05-06 23:15 36.16440 140.49346 7425 ft 265 kts 238°
2026-05-06 23:15 36.15476 140.47412 7066 ft 263 kts 238°
2026-05-06 23:15 36.14513 140.45492 6701 ft 262 kts 238°
2026-05-06 23:16 36.13554 140.43586 6318 ft 260 kts 238°
2026-05-06 23:16 36.12599 140.41695 5927 ft 259 kts 238°
2026-05-06 23:16 36.11646 140.39808 5509 ft 259 kts 238°
2026-05-06 23:16 36.10695 140.37922 5118 ft 258 kts 238°
2026-05-06 23:17 36.09761 140.36069 4727 ft 257 kts 238°
2026-05-06 23:17 36.08816 140.34198 4294 ft 256 kts 238°
2026-05-06 23:17 36.07876 140.32339 3957 ft 253 kts 237°
2026-05-06 23:17 36.06957 140.30525 3735 ft 246 kts 237°
2026-05-06 23:18 36.06056 140.28750 3468 ft 241 kts 237°
2026-05-06 23:18 36.05176 140.27017 3175 ft 235 kts 237°
2026-05-06 23:18 36.04316 140.25363 3054 ft 219 kts 231°
2026-05-06 23:18 36.03169 140.24316 2989 ft 206 kts 199°
2026-05-06 23:19 36.01749 140.23922 3003 ft 213 kts 187°
2026-05-06 23:19 36.00276 140.23935 2980 ft 211 kts 169°
2026-05-06 23:19 35.98924 140.24601 3006 ft 210 kts 157°
2026-05-06 23:19 35.97609 140.25426 3008 ft 211 kts 154°
2026-05-06 23:20 35.96362 140.26299 3016 ft 202 kts 153°
2026-05-06 23:20 35.95179 140.27158 2972 ft 193 kts 153°
2026-05-06 23:20 35.94037 140.27992 2974 ft 190 kts 153°
2026-05-06 23:20 35.92908 140.28814 2935 ft 194 kts 153°
2026-05-06 23:21 35.91727 140.29671 2663 ft 197 kts 152°
2026-05-06 23:21 35.90554 140.30529 2392 ft 195 kts 152°
2026-05-06 23:21 35.89424 140.31350 2181 ft 181 kts 152°
2026-05-06 23:21 35.88365 140.32118 1895 ft 171 kts 152°
2026-05-06 23:22 35.87340 140.32861 1687 ft 170 kts 152°
2026-05-06 23:22 35.86366 140.33571 1449 ft 154 kts 153°
2026-05-06 23:22 35.85467 140.34226 1272 ft 151 kts 152°
2026-05-06 23:22 35.84561 140.34880 1088 ft 155 kts 152°
2026-05-06 23:23 35.83637 140.35550 840 ft 152 kts 152°
2026-05-06 23:23 35.82736 140.36204 688 ft 150 kts 153°
2026-05-06 23:23 35.81828 140.36858 482 ft 152 kts 149°
2026-05-06 23:23 35.80921 140.37530 280 ft 152 kts 150°
2026-05-06 23:24 35.80013 140.38178 161 ft 145 kts 149°
2026-05-06 23:24 35.79241 140.38735 150 ft 105 kts 150°
2026-05-06 23:24 35.78878 140.38995 146 ft 41 kts 151°
2026-05-06 23:24 35.78665 140.39074 146 ft 28 kts 172°
2026-05-06 23:25 35.78472 140.39110 148 ft 21 kts 168°
2026-05-06 23:25 35.78328 140.39152 148 ft 21 kts 166°
2026-05-06 23:25 35.78192 140.39196 148 ft 15 kts 169°
2026-05-06 23:25 35.78112 140.39139 148 ft 12 kts 238°
2026-05-06 23:26 35.78039 140.39127 148 ft 12 kts 148°
2026-05-06 23:26 35.77970 140.39190 148 ft 12 kts 127°
2026-05-06 23:26 35.77930 140.39285 148 ft 12 kts 117°
2026-05-06 23:26 35.77892 140.39381 148 ft 12 kts 114°
2026-05-06 23:27 35.77849 140.39472 148 ft 12 kts 125°
2026-05-06 23:27 35.77781 140.39537 148 ft 13 kts 151°
2026-05-06 23:27 35.77705 140.39588 148 ft 12 kts 149°
2026-05-06 23:27 35.77630 140.39642 148 ft 12 kts 150°
2026-05-06 23:28 35.77554 140.39696 148 ft 12 kts 150°
2026-05-06 23:28 35.77479 140.39749 148 ft 12 kts 150°
2026-05-06 23:28 35.77404 140.39803 148 ft 12 kts 150°
2026-05-06 23:28 35.77327 140.39857 148 ft 13 kts 150°
2026-05-06 23:29 35.77250 140.39915 148 ft 13 kts 149°
2026-05-06 23:29 35.77171 140.39973 148 ft 13 kts 151°
2026-05-06 23:29 35.77085 140.40002 148 ft 13 kts 187°
2026-05-06 23:29 35.77000 140.39960 148 ft 13 kts 204°
2026-05-06 23:30 35.76917 140.39913 148 ft 13 kts 205°
2026-05-06 23:30 35.76855 140.39838 148 ft 13 kts 247°
2026-05-06 23:30 35.76787 140.39768 148 ft 13 kts 207°
2026-05-06 23:30 35.76717 140.39698 148 ft 13 kts 221°
2026-05-06 23:31 35.76609 140.39620 148 ft 29 kts 204°
2026-05-06 23:31 35.76425 140.39519 148 ft 28 kts 204°
2026-05-06 23:31 35.76246 140.39419 149 ft 28 kts 204°
2026-05-06 23:31 35.76066 140.39322 148 ft 28 kts 204°
2026-05-06 23:32 35.75890 140.39224 148 ft 25 kts 204°
2026-05-06 23:32 35.75774 140.39066 148 ft 25 kts 239°
2026-05-06 23:32 35.75685 140.38879 149 ft 25 kts 239°
2026-05-06 23:32 35.75612 140.38719 149 ft 18 kts 247°
2026-05-06 23:33 35.75597 140.38585 149 ft 10 kts 272°
2026-05-06 23:33 35.75636 140.38518 149 ft 10 kts 326°
2026-05-06 23:33 35.75711 140.38462 149 ft 16 kts 329°
2026-05-06 23:33 35.75808 140.38392 150 ft 16 kts 329°
2026-05-06 23:34 35.75918 140.38312 149 ft 21 kts 329°
2026-05-06 23:34 35.76059 140.38211 149 ft 24 kts 329°
2026-05-06 23:34 35.76204 140.38105 148 ft 24 kts 329°
2026-05-06 23:34 35.76349 140.38002 148 ft 24 kts 330°
2026-05-06 23:35 35.76493 140.37897 148 ft 24 kts 329°
2026-05-06 23:35 35.76589 140.37848 148 ft 11 kts 14°
2026-05-06 23:35 35.76636 140.37921 148 ft 11 kts 59°
2026-05-06 23:35 35.76686 140.37991 148 ft 11 kts 22°
2026-05-06 23:36 35.76758 140.37965 148 ft 11 kts 328°
2026-05-06 23:36 35.76824 140.37915 148 ft 11 kts 330°
2026-05-06 23:36 35.76891 140.37867 148 ft 11 kts 329°
2026-05-06 23:36 35.76947 140.37837 148 ft 7 kts 11°
2026-05-06 23:37 35.76979 140.37882 148 ft 6 kts 56°
2026-05-06 23:37 35.76997 140.37919 148 ft 4 kts 60°
2026-05-06 23:37 35.77002 140.37930 148 ft 0 kts 60°